SCP
0 0 0 0 0 0 0 0 0 0 0 0 0 0 0 0 0 0 0 0 0 0 0 0 0 0 0 0 0 0 0 0 0 0 1 0 0 0 0 0 0 0 0 0 0 0 0 0 1
0 0 0 0 0 0 0 0 0 0 0 0 0 0 0 0 0 0 0 0 0 0 0 0 0 0 0 0 0 0 0 0 0 0 1 1 0 0 0 0 0 0 0 0 0 0 0 0 1
0 0 0 0 0 0 0 0 0 0 0 0 0 0 0 0 0 0 0 0 0 0 0 0 0 0 0 0 0 0 0 0 0 0 0 0 0 0 0 0 0 0 0 0 0 0 0 0 0
0 0 0 0 0 0 0 0 0 0 0 0 0 0 0 0 0 0 0 0 0 0 0 0 0 0 0 0 0 0 0 0 0 0 0 0 0 0 0 0 0 0 0 0 0 0 0 0 0
0 0 0 0 0 0 0 0 0 0 0 0 0 0 0 0 0 0 0 0 0 0 0 0 0 0 0 0 0 0 0 0 0 0 0 0 0 0 0 0 0 0 0 0 0 0 0 0 0
0 0 0 0 0 0 0 0 0 0 0 0 0 0 0 0 0 0 0 0 0 0 0 0 0 0 0 0 0 0 0 0 0 0 0 0 0 0 0 0 0 0 0 0 0 0 0 0 0
0 0 0 0 0 0 0 0 0 0 0 0 0 0 0 0 0 0 0 0 0 0 0 0 0 0 0 0 0 0 0 0 0 0 0 0 0 0 0 0 0 0 0 0 0 0 0 0 0
0 0 0 0 0 0 0 0 0 0 0 0 0 0 0 0 0 0 0 0 0 0 0 0 0 0 0 0 0 0 0 0 0 0 0 0 0 0 0 0 0 0 0 0 0 0 0 0 0
0 0 0 0 0 0 0 0 0 0 0 0 0 0 0 0 0 0 0 0 0 0 0 0 0 0 0 0 0 0 0 0 0 0 0 0 0 0 0 0 0 0 0 0 0 0 0 0 0
0 0 0 0 0 0 0 0 0 0 0 0 0 0 0 0 1 0 0 0 0 0 0 0 0 0 0 0 0 0 0 0 0 0 0 0 0 0 0 0 0 0 0 0 0 0 0 0 0
0 0 0 0 0 0 0 0 0 0 0 0 0 0 0 1 1 1 0 0 0 0 0 0 0 0 0 0 0 0 0 0 0 0 0 0 0 0 0 0 0 0 0 0 0 0 0 0 0
0 0 0 0 0 0 0 0 0 0 0 0 0 0 1 1 1 1 0 0 0 0 0 0 0 0 0 0 0 0 0 0 0 0 0 0 0 0 0 0 0 0 0 0 0 0 0 0 0
0 0 0 0 0 0 0 0 0 0 0 0 0 1 1 1 1 1 0 0 0 0 0 0 0 0 0 0 0 0 0 0 0 0 0 0 0 0 0 0 0 0 0 0 0 0 0 0 0
0 0 0 0 0 0 0 0 0 0 0 0 0 1 1 1 1 0 0 0 0 0 0 0 0 0 0 0 0 0 0 0 0 0 0 0 0 0 0 0 0 0 0 0 0 0 0 0 0
0 0 0 0 0 0 0 0 0 0 0 0 0 1 1 1 1 0 0 0 0 0 0 0 0 0 0 0 0 0 0 0 0 0 0 0 0 0 0 0 0 0 0 0 0 0 0 0 0
0 0 0 0 0 0 0 0 0 0 0 0 0 1 1 1 0 0 0 0 0 0 0 1 1 0 0 0 0 0 0 0 0 0 0 0 0 0 0 0 0 0 0 0 0 0 0 0 0
0 0 0 0 0 0 0 0 0 0 0 0 0 0 0 0 0 0 0 0 0 0 1 1 1 1 0 0 0 0 0 0 0 0 0 0 0 0 0 0 0 0 0 0 0 0 0 0 0
0 0 0 0 0 0 0 0 0 0 0 0 0 0 0 0 0 0 0 0 0 0 1 1 1 1 1 0 0 0 0 0 0 0 0 0 0 0 0 0 0 0 0 0 0 0 0 0 0
0 0 0 0 0 0 0 0 0 0 0 0 0 0 0 0 0 0 1 1 1 1 1 1 1 1 1 1 1 0 0 0 0 0 0 0 0 0 0 0 0 0 0 0 0 0 0 0 0
0 0 0 0 0 0 0 0 0 0 0 0 0 0 0 0 0 0 0 1 1 1 1 1 1 1 1 1 1 0 0 0 0 0 0 0 0 0 0 0 0 0 0 0 0 0 0 0 0
0 0 0 0 0 0 0 0 0 0 0 0 0 0 0 0 0 0 1 1 1 1 1 2 2 2 2 1 1 1 1 1 0 0 0 0 0 0 0 0 0 0 0 0 0 0 0 0 0
0 0 0 0 0 0 0 0 0 0 0 0 0 0 0 1 1 1 1 1 2 2 2 2 2 2 2 2 2 1 1 1 1 0 0 0 0 0 0 0 0 0 0 0 0 0 0 0 0
0 0 0 0 0 0 0 0 0 0 0 0 0 0 0 1 1 2 2 2 3 3 4 4 3 3 3 2 2 2 1 1 0 0 0 0 0 0 0 0 0 0 0 0 0 0 0 0 0
0 0 0 0 0 0 0 0 0 0 0 0 0 0 0 1 1 2 2 3 4 5 5 5 4 3 3 2 1 1 1 1 0 0 0 0 0 0 0 0 0 0 0 0 0 0 0 0 0
0 0 0 0 0 0 0 0 0 0 0 0 0 0 0 1 1 1 2 3 4 5 6 5 4 3 2 1 1 1 0 0 0 0 0 0 0 0 0 0 0 0 0 0 0 0 0 0 0
0 0 0 0 0 0 0 0 0 0 0 0 0 0 0 0 0 1 1 2 3 5 5 5 4 3 2 1 1 0 0 0 0 0 0 0 0 0 0 0 0 0 0 0 0 0 0 0 0
0 0 0 0 0 0 0 0 0 0 0 0 0 0 0 0 0 0 1 1 2 3 4 4 3 2 1 1 0 0 0 0 0 0 0 0 0 0 0 0 0 0 0 0 0 0 0 0 0
0 0 0 0 0 0 0 0 0 0 0 0 0 0 0 0 0 0 0 1 1 2 2 2 2 1 1 0 0 0 0 0 0 0 0 0 0 0 0 0 0 0 0 0 0 0 0 0 0
0 0 0 0 0 0 0 0 0 0 0 0 0 0 0 0 0 0 0 0 0 1 1 1 1 1 0 0 0 0 0 0 0 0 0 0 0 0 0 0 0 0 0 0 0 0 0 0 0
0 0 0 0 0 0 0 0 0 0 0 0 0 0 0 0 0 0 0 1 0 0 0 0 0 0 0 0 0 0 0 0 0 0 0 0 0 0 0 0 0 0 0 0 0 0 0 0 0
Wind_Speed
6 2 3 4 7 6 2 1 2 1 2 2 3 6 6 4 1 1 2 8 10 10 7 10 13 12 12 11 11 11 12 12 13 13 13 12 11 10 10 9 9 8 8 7 7 7 8 8 7
3 0 3 6 7 3 2 2 1 1 4 4 4 4 4 3 2 5 4 6 11 11 7 8 13 13 12 11 11 11 11 11 12 13 12 11 10 10 9 9 9 8 8 7 7 7 7 8 7
2 1 4 5 4 3 1 1 1 2 3 2 4 4 3 3 4 5 5 9 10 9 7 8 14 13 12 11 11 11 11 11 12 12 11 10 10 9 9 8 8 8 8 7 7 7 7 7 7
2 4 5 6 3 1 2 2 1 4 1 4 4 4 2 2 6 5 9 11 11 8 6 8 14 12 12 11 11 11 11 11 11 11 11 10 9 9 8 8 8 8 7 7 7 7 8 8 7
4 4 6 4 3 4 3 3 3 4 2 2 3 4 2 3 6 11 12 11 10 7 6 7 13 12 12 11 11 11 11 11 10 10 10 10 9 8 7 7 7 7 6 6 6 7 8 9 8
5 5 5 2 5 6 4 2 2 3 3 3 4 4 1 2 7 10 10 9 8 9 7 6 12 12 11 11 11 11 11 10 10 10 10 10 9 8 7 6 6 6 5 5 5 7 8 9 8
4 4 3 1 3 5 4 1 3 4 4 4 6 5 2 2 5 8 7 7 7 7 6 5 6 8 11 11 11 11 11 10 10 10 10 10 9 8 7 6 5 4 4 4 4 6 8 8 7
4 5 3 1 1 4 4 3 2 5 4 4 5 7 5 6 6 7 6 6 6 6 6 5 5 5 5 6 11 11 11 11 10 10 10 10 9 8 7 5 4 4 4 3 4 5 7 8 7
4 6 2 3 3 4 3 2 1 2 5 3 3 5 5 10 10 7 5 3 5 6 5 5 5 5 5 5 7 9 10 10 9 8 10 8 4 3 4 4 4 4 3 3 3 4 7 8 7
4 3 6 5 4 3 3 2 1 4 3 2 2 3 8 12 11 9 7 7 8 8 7 5 6 6 5 5 4 3 4 5 4 4 4 4 3 3 4 4 6 4 2 2 4 6 7 6 3
2 4 4 3 4 3 3 3 0 7 4 7 8 10 12 12 11 11 10 8 8 7 8 8 6 6 6 4 4 3 3 3 4 5 5 4 3 2 2 1 0 2 3 4 5 5 3 2 2
1 2 2 3 1 2 2 3 2 4 5 6 9 16 16 15 15 14 13 10 7 7 8 8 7 6 6 4 4 4 3 3 3 4 5 4 3 2 2 1 1 2 2 2 2 2 2 2 3
1 1 1 3 4 3 3 4 3 3 7 1 10 13 16 16 15 13 11 9 7 8 8 8 8 7 6 5 4 5 4 5 4 4 4 5 3 3 3 2 2 2 2 1 1 1 2 3 4
2 1 2 2 3 3 3 4 1 5 7 3 11 13 14 15 15 11 10 10 10 10 10 9 9 8 7 5 5 5 4 5 5 4 5 5 4 3 3 3 3 3 3 2 1 2 3 3 3
2 1 2 3 3 3 3 3 2 5 6 1 7 10 11 11 11 12 12 12 12 11 11 11 10 9 9 7 7 5 5 5 5 4 5 5 5 4 4 3 3 3 3 3 2 3 3 3 3
3 3 2 3 3 4 3 3 1 3 5 4 3 5 7 9 11 10 10 10 9 9 10 12 11 11 10 8 6 4 5 5 5 4 4 6 6 5 4 4 4 3 3 3 3 3 3 2 2
5 2 2 4 1 2 2 4 4 2 3 3 4 4 5 7 9 9 10 10 9 9 10 12 11 12 11 8 6 5 4 5 5 4 5 6 7 7 5 4 4 3 3 3 3 3 3 3 3
2 1 2 4 2 1 1 5 8 4 4 5 6 6 6 7 10 9 10 10 9 9 10 11 11 10 9 6 4 3 3 4 4 4 5 6 5 6 6 4 4 3 3 3 3 3 3 3 3
3 3 5 6 2 1 3 6 8 6 7 8 8 8 8 9 9 8 11 13 11 11 11 12 12 10 9 6 5 4 4 3 3 4 5 6 5 6 5 4 4 4 4 4 4 3 3 2 3
2 3 5 5 2 1 3 6 4 6 8 8 9 10 11 12 10 9 9 12 15 15 14 13 13 11 11 8 5 3 3 2 2 2 4 5 5 5 5 5 4 5 4 4 5 4 3 2 3
2 3 4 4 2 2 3 5 4 5 6 11 12 11 11 13 13 11 9 10 13 15 15 13 13 10 9 7 5 3 3 3 2 2 2 3 4 4 4 5 4 5 5 5 6 5 5 3 2
4 4 3 2 0 3 1 4 4 6 8 14 16 15 16 16 14 10 8 7 9 11 10 9 9 8 6 7 6 5 5 4 4 3 3 3 4 4 4 4 5 5 4 5 6 6 4 5 3
4 4 2 1 2 1 1 2 5 5 9 14 16 16 17 16 15 11 8 4 1 2 5 7 9 8 6 4 3 3 2 2 2 2 4 3 3 3 4 4 4 4 4 5 5 6 6 5 5
4 4 3 4 3 2 3 3 3 5 9 14 15 15 16 17 15 12 10 8 8 8 9 10 11 10 7 4 0 2 4 4 4 3 3 3 2 2 3 4 4 4 3 4 4 5 7 6 6
7 5 4 4 1 5 1 3 2 6 9 11 14 15 15 14 13 11 10 9 8 9 9 10 12 11 7 2 1 3 4 5 4 4 4 3 2 2 3 3 3 3 3 3 3 4 5 6 7
5 1 2 3 4 3 2 2 3 5 8 9 11 12 13 12 11 10 9 8 7 8 8 10 13 8 3 2 3 3 3 3 2 3 3 3 3 3 3 3 3 3 2 2 3 3 4 4 6
6 4 2 2 2 2 1 2 2 11 14 15 15 15 15 14 12 10 7 7 7 7 8 9 9 4 2 3 3 3 3 3 3 3 3 3 3 3 4 3 3 2 2 2 2 2 3 3 5
3 2 4 1 1 2 0 4 7 15 18 18 17 16 15 14 12 10 6 7 7 7 6 6 4 2 5 4 4 3 3 3 3 3 3 3 3 3 4 3 3 2 2 2 2 1 2 3 3
7 6 4 2 1 1 1 3 6 10 13 14 15 15 14 13 10 7 4 5 7 6 4 3 3 4 4 4 3 2 2 2 3 3 3 3 3 4 4 4 4 3 3 2 2 1 1 1 1
3 4 3 2 2 1 1 2 6 10 11 12 14 15 14 12 8 4 3 4 3 1 3 4 4 3 3 3 2 2 2 2 2 2 2 3 3 4 4 4 4 4 4 3 3 2 2 1 1
Wind_Direction
328 16 101 60 52 50 44 331 272 306 50 46 74 90 100 98 141 167 113 138 132 145 162 155 152 148 146 145 142 138 136 134 132 131 128 125 122 120 118 115 112 108 105 105 109 110 109 105 103
314 202 64 58 76 64 325 310 271 233 131 139 84 81 83 78 94 116 132 147 142 149 155 154 157 153 151 151 148 143 140 139 137 136 134 131 129 126 122 118 114 109 104 101 102 107 109 106 103
303 46 76 68 84 141 270 293 256 82 126 109 76 60 88 126 138 153 156 142 143 149 149 161 160 157 155 154 150 147 147 144 141 138 136 134 131 128 125 123 119 112 104 98 93 94 98 98 97
70 46 55 66 49 250 257 282 193 129 91 59 94 74 62 113 154 151 138 142 146 148 147 167 164 162 161 159 155 151 147 142 141 140 137 133 131 129 128 126 124 117 108 99 89 83 83 81 74
61 70 60 47 346 304 276 259 182 154 126 84 101 100 52 15 114 129 140 148 150 147 150 172 170 169 167 164 161 156 151 148 147 145 141 139 136 134 132 130 129 125 115 101 85 76 71 64 55
54 62 75 34 320 312 298 253 151 133 123 122 114 104 60 107 124 140 146 150 153 154 156 171 177 175 174 170 167 164 160 158 156 152 148 147 144 141 138 136 130 128 123 107 82 66 62 55 51
94 83 102 94 328 322 321 356 159 151 150 166 137 111 109 163 152 143 141 139 144 154 157 168 173 177 179 176 173 171 168 165 162 157 153 151 149 148 147 147 144 142 138 122 86 62 56 52 49
113 95 77 43 323 288 299 323 193 161 164 128 124 143 181 191 153 129 122 133 145 154 161 165 166 167 169 174 180 176 173 169 165 159 156 156 156 156 154 154 160 158 151 129 87 63 56 55 50
83 79 151 211 210 260 295 332 359 126 117 118 151 174 187 146 139 127 121 136 159 168 168 165 164 162 158 166 185 178 175 172 165 161 163 154 132 129 140 158 172 166 152 120 83 60 55 57 42
81 128 211 211 200 228 293 285 230 118 118 116 88 100 127 142 154 161 171 177 182 185 181 170 168 163 162 175 165 152 154 154 142 139 137 120 117 127 139 184 180 175 156 80 54 45 54 56 35
126 181 229 240 219 233 285 295 299 140 189 204 186 163 148 158 169 183 190 188 192 188 187 181 175 167 165 161 147 141 134 133 135 139 133 129 125 127 126 122 124 50 63 46 30 34 41 51 57
180 243 232 270 236 238 264 307 345 184 241 238 182 162 160 172 183 192 196 196 187 181 191 182 179 172 170 161 156 152 147 146 150 153 149 143 144 148 151 159 126 87 73 62 30 14 26 86 98
210 259 255 303 312 292 294 283 288 318 324 141 147 162 173 183 192 199 201 196 184 186 190 183 180 177 171 165 166 164 163 163 163 161 162 159 161 171 172 175 162 143 129 123 56 39 83 115 113
260 269 318 349 351 354 313 289 16 343 334 141 161 179 187 192 195 196 199 199 195 193 191 184 182 179 173 174 175 173 170 166 165 170 175 172 172 176 178 185 185 173 161 160 138 104 110 114 117
298 317 32 19 4 351 331 337 55 323 344 174 194 197 199 206 204 207 206 207 202 196 189 185 186 180 180 182 185 179 176 169 176 178 181 183 184 186 183 189 202 187 159 157 133 112 105 113 115
27 42 360 336 7 352 33 302 248 346 26 2 299 248 227 223 220 219 217 217 209 196 191 191 191 185 188 188 186 181 175 175 181 178 181 193 195 191 185 195 212 180 152 154 148 135 120 126 137
32 37 325 310 345 19 51 282 283 345 10 328 315 293 262 250 243 232 221 220 214 201 195 192 191 186 189 187 184 184 177 183 181 178 186 198 201 196 191 202 211 173 156 164 169 148 144 157 164
242 235 256 274 289 9 297 273 295 337 328 310 307 304 290 268 251 242 230 220 218 207 197 196 193 186 177 168 162 170 184 193 184 183 192 195 198 197 194 202 202 176 165 174 177 160 147 148 154
203 219 252 260 270 277 273 285 304 343 4 348 336 323 308 289 274 257 237 221 211 208 198 196 193 183 169 163 170 177 194 191 192 191 187 188 189 190 191 197 188 179 190 189 179 157 154 142 138
223 252 266 283 342 270 299 296 328 22 23 7 353 339 326 311 300 284 256 229 212 208 202 196 195 186 182 183 169 160 150 164 170 165 177 182 181 182 186 184 183 184 184 180 178 163 154 154 156
282 238 257 269 346 38 347 320 3 2 14 10 3 349 338 326 311 300 278 239 222 213 203 196 190 186 184 162 134 108 97 95 126 169 183 185 180 178 180 183 181 183 179 184 182 176 166 165 176
296 300 272 264 296 293 31 294 320 341 352 4 358 352 345 338 328 315 300 262 226 215 198 180 166 160 155 143 159 167 171 179 190 172 165 161 174 179 182 179 180 182 184 188 188 181 170 161 173
305 335 1 336 189 290 314 235 304 350 357 352 348 346 345 342 342 342 341 323 278 142 120 122 119 108 103 111 162 183 163 150 133 133 152 155 161 174 177 178 182 187 191 194 188 179 181 178 174
341 359 25 42 87 249 239 190 328 14 350 339 340 344 345 346 349 359 11 26 45 66 83 96 96 87 78 71 194 200 168 154 151 157 158 151 148 157 172 177 184 191 194 196 193 190 189 193 188
19 30 356 339 356 241 245 145 65 6 357 341 336 339 344 351 354 360 18 26 38 56 72 87 86 75 59 31 259 211 183 171 171 169 166 154 153 165 180 169 174 186 197 197 189 191 199 197 199
339 28 205 253 241 282 358 128 106 15 352 344 342 341 345 353 357 2 18 31 43 53 64 81 83 77 52 279 249 214 177 165 166 165 161 168 175 176 171 167 167 176 182 186 185 195 204 202 209
358 348 286 252 272 268 291 90 93 360 356 352 349 348 346 346 352 358 13 33 50 60 64 76 88 95 254 242 229 197 179 169 168 165 164 170 171 166 161 154 142 141 151 166 172 202 215 206 209
35 329 10 5 248 245 217 63 0 348 344 342 344 343 340 340 348 352 15 40 50 52 51 61 76 234 248 232 213 193 186 180 172 166 172 173 169 158 149 144 143 147 153 156 165 200 211 205 209
356 7 357 314 276 238 126 69 15 342 335 335 337 340 339 337 340 344 28 54 52 40 15 340 268 248 242 219 200 179 177 173 164 164 167 165 165 163 161 164 168 174 176 173 167 189 187 196 216
21 347 311 309 350 6 79 75 5 345 343 346 346 345 345 347 352 4 60 79 63 6 287 271 263 243 230 203 177 154 153 145 143 149 156 164 172 180 181 175 178 182 183 182 183 197 183 179 207